Temperature
7 7 7 7 7 7 7 6 6 5 5 6 6 6 6 6 5 6 6 6 6 6 5 5 5 5 5 5 5 5 5 5 5 5 5 5 5 5
7 6 6 6 6 6 6 6 6 6 5 5 5 5 5 5 5 5 5 5 5 5 5 5 5 5 5 5 5 5 5 5 5 5 4 4 4 4
6 6 6 6 6 6 6 6 5 5 5 5 5 5 5 5 5 4 4 4 4 4 4 4 4 4 4 4 4 4 4 4 4 4 4 4 4 4
6 6 6 6 5 5 5 5 5 5 4 4 4 4 4 4 4 4 4 4 4 4 4 4 4 4 4 4 4 4 4 4 4 4 4 4 3 3
5 5 5 5 5 5 5 5 5 4 4 4 4 4 4 4 4 4 3 3 3 3 3 3 3 4 4 3 3 3 3 3 3 3 3 3 3 3
5 5 5 5 5 4 4 4 4 4 4 3 3 3 3 3 3 3 3 3 3 3 3 3 3 3 3 3 3 3 3 3 3 3 3 2 2 2
4 4 4 4 4 4 4 4 4 3 3 3 3 3 3 3 3 2 2 2 2 2 3 3 3 3 3 3 3 2 2 2 2 2 2 2 2 2
4 4 4 4 4 3 3 3 3 3 3 3 3 2 2 2 2 2 2 2 2 2 2 2 2 2 2 2 2 2 2 2 1 1 1 1 1 1
3 3 3 3 3 3 3 3 3 2 2 2 2 2 2 2 1 1 1 1 1 1 1 2 2 2 2 2 2 1 1 1 1 1 0 0 0 0
3 3 3 3 3 2 2 2 2 2 2 2 2 2 1 1 1 1 1 1 1 1 0 0 1 1 1 1 1 1 1 0 0 0 -0 -0 -0 -0
2 2 2 2 2 2 2 2 2 2 2 1 1 1 1 1 1 0 0 -0 -0 -0 -0 -0 0 0 0 1 0 -0 -0 -0 -0 -1 -1 -1 -1 -1
2 2 2 2 2 1 1 1 1 1 1 1 1 1 1 0 0 -0 -0 -1 -1 -1 -1 -1 -1 -1 -1 -1 -1 -1 -1 -1 -1 -1 -1 -1 -1 -2
2 2 2 1 1 1 1 1 1 1 0 0 0 0 0 -0 -1 -1 -1 -1 -2 -2 -2 -2 -2 -2 -3 -3 -2 -2 -2 -2 -2 -2 -2 -2 -2 -2
1 1 1 1 0 0 0 0 -0 -0 -0 -0 -0 -0 -0 -1 -1 -1 -2 -2 -2 -2 -2 -2 -3 -3 -3 -3 -3 -3 -3 -3 -3 -2 -2 -2 -2 -3
1 0 0 0 -0 -0 -0 -0 -1 -1 -1 -1 -1 -1 -1 -2 -2 -2 -2 -2 -2 -2 -2 -3 -3 -3 -4 -4 -4 -4 -3 -3 -3 -3 -3 -3 -3 -3
0 -0 -0 -0 -0 -1 -1 -1 -1 -1 -2 -2 -2 -2 -2 -2 -2 -3 -3 -3 -3 -2 -3 -3 -4 -4 -4 -4 -4 -4 -4 -4 -4 -4 -4 -4 -4 -4
-0 -1 -1 -1 -1 -1 -1 -1 -2 -2 -2 -2 -2 -3 -3 -3 -3 -3 -3 -4 -4 -4 -3 -4 -4 -4 -4 -5 -5 -4 -4 -4 -4 -5 -5 -5 -4 -4
-1 -1 -1 -1 -1 -2 -2 -2 -2 -2 -3 -3 -3 -3 -3 -4 -4 -4 -4 -4 -4 -4 -4 -5 -5 -5 -5 -5 -5 -5 -5 -5 -5 -5 -5 -5 -5 -4
-2 -2 -2 -2 -2 -2 -2 -3 -3 -3 -3 -3 -4 -4 -4 -4 -5 -5 -5 -5 -5 -5 -5 -5 -5 -6 -6 -6 -5 -5 -6 -5 -6 -5 -6 -6 -6 -5
-2 -2 -2 -2 -3 -3 -3 -3 -4 -4 -4 -4 -4 -5 -5 -5 -5 -5 -5 -5 -5 -5 -5 -5 -6 -6 -6 -7 -6 -6 -6 -6 -6 -6 -6 -6 -6 -5
-3 -3 -3 -3 -3 -4 -4 -4 -4 -5 -5 -5 -5 -5 -6 -6 -6 -6 -6 -6 -6 -6 -6 -6 -6 -6 -7 -7 -7 -6 -6 -6 -7 -7 -7 -7 -7 -6
-3 -3 -3 -4 -4 -4 -4 -5 -5 -5 -5 -6 -6 -6 -6 -6 -6 -6 -6 -6 -6 -6 -6 -6 -6 -7 -7 -7 -7 -7 -6 -6 -6 -7 -7 -7 -8 -7
-4 -4 -4 -4 -5 -5 -5 -5 -5 -6 -6 -6 -6 -6 -7 -7 -7 -7 -7 -7 -7 -6 -7 -7 -7 -7 -7 -7 -7 -7 -7 -7 -7 -7 -7 -7 -7 -7
Wind_Speed
2 2 1 1 1 1 1 2 3 3 3 3 2 3 4 4 5 5 6 7 9 9 9 9 9 10 10 10 10 10 11 11 11 10 10 10 10 11
2 2 2 1 1 2 2 2 2 3 3 3 2 2 4 4 6 6 7 8 9 10 10 11 11 11 11 11 11 11 11 11 11 11 11 11 11 11
2 3 3 2 2 2 2 2 3 3 4 3 2 2 2 3 4 6 7 8 8 10 11 12 12 11 12 12 12 12 12 11 12 12 12 12 13 13
4 3 3 2 3 3 3 3 3 3 4 5 3 2 3 4 3 4 5 7 8 10 12 12 12 12 12 12 12 12 12 12 12 12 12 13 13 14
4 4 4 3 4 3 3 4 3 4 4 4 4 3 3 2 3 3 4 5 7 9 10 12 12 13 13 13 13 12 12 12 12 13 13 13 14 14
4 4 5 5 5 4 4 4 3 3 3 4 4 3 3 3 2 3 4 3 4 6 8 10 12 13 13 13 12 12 12 12 13 12 12 13 14 14
4 4 5 6 6 5 4 4 4 4 4 4 4 4 3 3 3 3 4 3 4 3 4 5 6 7 9 11 11 12 12 12 12 12 12 13 13 14
4 4 4 5 6 7 8 8 7 6 5 5 5 5 6 4 4 3 3 3 4 2 2 5 4 5 6 8 11 12 12 12 12 13 13 13 14 14
4 4 4 4 4 4 5 6 7 9 10 7 7 7 6 5 4 4 4 4 5 3 2 6 4 6 7 10 12 12 12 12 13 14 14 14 14 14
5 5 4 4 4 4 4 4 5 6 8 7 7 7 5 4 4 5 5 4 4 3 3 5 4 5 6 7 11 12 12 13 13 15 15 15 15 15
4 4 4 4 6 5 4 4 5 6 7 9 9 8 8 8 5 2 2 3 5 4 3 3 3 4 4 4 7 9 11 12 14 14 15 15 15 15
3 3 5 5 5 5 4 4 6 6 4 5 5 7 6 7 8 5 5 4 4 4 3 2 2 2 4 3 3 5 8 11 14 15 15 15 15 11
3 2 3 5 5 5 5 4 6 5 4 4 4 4 4 4 4 5 5 5 5 5 3 2 3 3 4 4 4 4 5 6 8 11 13 14 15 12
3 3 3 4 5 5 4 5 6 4 2 2 3 3 4 4 3 4 5 6 6 7 6 4 4 4 5 6 6 3 4 6 6 6 7 12 13 14
3 4 4 5 5 4 5 6 4 2 2 3 4 4 3 3 2 2 2 3 5 7 8 7 5 5 5 6 6 5 6 5 5 5 5 6 6 7
2 3 5 5 4 4 4 3 3 3 3 3 3 3 2 2 2 2 2 2 3 4 5 8 7 6 6 7 7 8 6 5 4 5 5 6 7 8
2 1 1 2 2 2 3 3 2 2 2 2 2 3 2 2 3 2 2 3 4 4 5 3 5 6 6 6 7 8 7 7 6 5 6 7 6 6
2 2 3 3 4 4 3 3 3 3 3 3 2 3 3 3 3 3 3 3 4 5 5 4 3 3 3 5 9 8 7 6 5 5 5 7 8 6
3 3 4 4 4 4 4 3 3 3 2 2 3 3 3 3 3 4 4 4 4 5 5 4 3 4 6 7 5 7 5 5 5 5 5 6 8 8
3 4 4 4 4 4 3 3 3 2 2 3 3 3 3 3 4 4 4 5 5 5 5 4 4 5 6 6 6 5 7 6 5 6 6 5 6 10
3 4 4 3 3 3 3 3 3 3 3 3 3 4 4 4 4 5 5 7 6 5 6 5 5 6 4 3 5 5 4 8 8 6 6 6 7 6
4 4 4 3 3 3 3 3 3 3 4 4 4 4 4 4 5 6 5 5 5 5 6 5 4 3 3 5 7 7 7 6 8 11 11 10 6 5
4 4 4 4 4 3 3 4 5 4 4 4 4 4 4 4 5 5 5 5 5 5 5 5 4 3 4 5 6 6 7 7 6 5 6 10 13 15
Wind_Direction
209 206 216 228 207 208 187 173 184 236 249 238 230 217 214 233 248 246 258 265 272 276 280 281 283 283 283 284 288 291 289 288 287 285 288 287 288 291
206 204 216 218 207 206 202 210 206 212 244 235 234 229 211 238 255 258 263 271 268 270 275 276 276 277 279 281 283 284 285 284 283 283 284 286 285 287
203 210 222 214 216 221 216 217 224 218 245 264 253 235 223 231 255 264 265 267 270 268 273 274 273 275 277 279 280 281 282 282 283 282 282 284 285 285
209 209 223 216 218 223 220 221 224 222 231 254 260 254 253 238 240 254 265 270 271 269 272 275 275 277 279 280 279 278 277 278 280 280 280 282 284 285
209 210 220 212 227 228 226 226 229 235 231 237 253 254 260 254 264 268 266 264 272 272 275 276 275 277 279 280 279 277 276 278 278 278 279 281 282 283
214 217 221 214 219 220 224 227 230 233 233 238 247 254 255 256 248 262 280 271 272 278 278 278 276 277 277 278 278 276 276 278 278 277 279 281 281 281
222 223 227 221 220 223 227 223 223 233 236 237 244 252 250 247 245 242 261 279 276 267 272 276 278 277 278 275 273 273 276 278 279 279 281 282 282 281
224 229 231 224 227 235 240 237 228 229 233 237 245 245 250 246 238 239 251 278 283 280 291 286 275 270 268 268 273 275 276 277 282 282 281 282 282 281
228 227 234 234 228 228 245 251 248 248 246 241 242 246 247 242 236 243 241 249 257 261 290 284 275 272 274 275 276 276 278 282 287 286 282 283 283 282
229 223 221 227 228 228 233 245 248 250 249 242 237 242 243 231 224 236 243 260 274 266 240 268 279 276 283 276 273 276 282 286 289 291 287 286 285 284
231 227 224 230 238 234 226 243 258 262 263 256 253 250 253 259 252 247 244 260 276 269 228 240 274 291 288 275 271 277 287 292 292 294 292 291 289 289
235 233 236 242 243 242 230 233 248 255 251 260 258 260 253 254 254 231 222 242 263 268 234 223 271 309 301 278 272 287 291 291 293 294 294 294 291 291
233 240 243 246 253 257 252 240 254 260 243 243 251 254 251 243 235 230 222 224 242 255 232 217 257 261 262 285 286 268 269 282 291 292 290 292 293 291
232 235 238 249 260 267 269 269 273 275 247 245 250 254 253 250 246 238 243 243 242 250 250 237 248 257 273 283 284 280 279 280 279 281 284 289 293 292
235 242 252 257 266 267 268 270 270 253 237 247 253 252 245 244 241 246 254 260 270 268 264 255 246 255 259 269 278 281 293 285 270 269 277 282 283 286
250 252 259 259 262 261 264 258 243 235 240 247 258 261 256 249 251 251 262 268 279 283 266 255 247 247 262 263 268 277 278 277 284 282 282 281 277 273
243 236 243 249 252 256 255 248 241 247 260 253 257 267 268 265 268 258 251 255 262 278 287 278 257 250 252 260 267 267 270 273 272 280 288 289 281 272
242 231 241 243 247 249 251 258 254 250 249 247 252 256 264 268 273 269 254 248 261 269 272 273 274 285 283 264 242 256 264 269 274 273 275 284 290 284
238 235 241 242 248 248 247 250 254 253 244 243 252 257 263 266 269 271 264 258 262 265 265 260 260 263 281 289 274 236 252 273 280 280 271 272 284 288
231 237 241 242 243 246 247 250 254 260 260 256 255 255 257 261 266 267 263 260 266 268 269 260 249 246 257 273 281 276 251 256 272 280 284 281 280 284
240 242 245 246 248 251 251 248 246 247 252 255 256 256 254 256 263 263 262 266 266 266 268 268 258 256 258 268 279 281 273 262 265 270 281 289 294 294
244 245 250 251 253 253 250 244 243 246 247 248 251 254 252 252 261 262 260 261 259 260 268 274 269 264 259 267 276 283 291 295 285 277 272 266 274 280
247 248 248 246 244 244 245 244 244 247 244 244 245 248 249 252 258 260 259 259 261 263 270 278 279 268 262 261 271 280 284 293 298 298 290 282 277 275
Height
1498 1499 1499 1500 1501 1502 1503 1503 1504 1502 1502 1502 1503 1503 1504 1504 1504 1503 1503 1502 1502 1501 1500 1500 1499 1498 1498 1497 1496 1495 1494 1494 1493 1492 1492 1491 1490 1489
1494 1495 1495 1496 1497 1498 1499 1499 1499 1499 1498 1498 1499 1500 1499 1499 1499 1499 1498 1498 1497 1497 1496 1495 1494 1494 1493 1492 1491 1490 1490 1489 1488 1487 1486 1486 1485 1484
1490 1491 1491 1492 1493 1493 1494 1494 1495 1495 1494 1493 1494 1495 1495 1494 1494 1494 1493 1493 1492 1492 1491 1490 1490 1489 1488 1487 1486 1485 1484 1484 1483 1482 1481 1480 1479 1479
1485 1486 1487 1488 1488 1489 1489 1490 1490 1490 1490 1488 1489 1490 1490 1489 1489 1489 1488 1488 1487 1487 1486 1485 1485 1484 1483 1482 1481 1480 1479 1478 1477 1476 1476 1475 1474 1473
1481 1482 1483 1484 1484 1484 1485 1485 1485 1485 1485 1484 1484 1485 1485 1485 1484 1484 1483 1483 1482 1482 1481 1480 1479 1478 1477 1476 1475 1474 1473 1472 1471 1471 1470 1469 1468 1467
1477 1478 1479 1479 1480 1480 1480 1480 1480 1481 1481 1480 1479 1479 1480 1479 1479 1478 1478 1477 1477 1476 1476 1475 1474 1473 1472 1471 1470 1469 1468 1467 1466 1464 1463 1462 1461 1460
1473 1474 1475 1475 1475 1476 1476 1476 1476 1476 1476 1475 1474 1474 1474 1474 1474 1473 1473 1472 1471 1471 1470 1469 1468 1467 1466 1465 1464 1463 1462 1461 1459 1458 1457 1455 1454 1453
1468 1469 1470 1470 1471 1471 1471 1471 1471 1471 1471 1470 1469 1469 1469 1469 1469 1468 1468 1467 1465 1466 1464 1463 1463 1461 1460 1459 1458 1456 1455 1454 1453 1451 1450 1449 1448 1446
1464 1464 1464 1466 1466 1466 1466 1466 1466 1466 1467 1466 1465 1464 1464 1464 1464 1463 1462 1461 1460 1460 1459 1456 1457 1455 1454 1453 1452 1451 1449 1448 1446 1445 1443 1442 1440 1439
1460 1460 1460 1461 1461 1461 1461 1460 1460 1461 1461 1460 1460 1459 1459 1459 1459 1458 1457 1456 1455 1454 1454 1451 1450 1449 1447 1446 1445 1444 1443 1441 1440 1438 1437 1435 1434 1432
1455 1456 1456 1456 1456 1456 1456 1455 1454 1455 1455 1455 1455 1454 1454 1454 1453 1453 1451 1451 1448 1447 1448 1446 1443 1442 1440 1439 1438 1438 1436 1435 1433 1432 1430 1429 1427 1425
1451 1451 1452 1451 1451 1451 1451 1450 1449 1449 1449 1449 1448 1448 1448 1448 1447 1447 1446 1445 1443 1442 1441 1441 1438 1437 1433 1431 1431 1431 1430 1428 1427 1425 1424 1422 1421 1418
1446 1446 1446 1447 1447 1447 1446 1445 1444 1444 1443 1443 1442 1442 1442 1442 1441 1441 1441 1440 1438 1437 1437 1436 1433 1432 1430 1426 1424 1424 1423 1422 1420 1419 1417 1416 1414 1412
1441 1442 1442 1442 1442 1442 1441 1440 1440 1439 1438 1438 1437 1436 1436 1436 1436 1435 1434 1434 1433 1432 1431 1430 1428 1427 1425 1421 1419 1417 1417 1416 1414 1412 1410 1409 1407 1406
1437 1437 1437 1437 1437 1437 1436 1436 1435 1434 1433 1432 1432 1431 1431 1431 1430 1429 1428 1427 1426 1426 1425 1424 1422 1421 1420 1417 1414 1412 1410 1409 1407 1405 1404 1402 1401 1399
1433 1433 1433 1433 1433 1432 1432 1431 1430 1429 1429 1428 1427 1427 1426 1425 1424 1424 1422 1421 1420 1419 1419 1418 1417 1416 1413 1412 1410 1407 1406 1404 1401 1400 1398 1396 1395 1393
1428 1428 1428 1428 1427 1427 1427 1426 1425 1425 1424 1424 1423 1422 1421 1420 1419 1419 1417 1416 1415 1413 1413 1413 1412 1410 1409 1407 1404 1402 1401 1398 1397 1395 1392 1389 1388 1387
1425 1424 1423 1423 1422 1422 1421 1421 1421 1420 1420 1419 1418 1418 1417 1416 1415 1414 1413 1411 1410 1409 1408 1407 1406 1404 1403 1401 1400 1398 1396 1394 1391 1390 1388 1384 1381 1381
1420 1419 1419 1418 1418 1418 1417 1417 1416 1416 1415 1415 1414 1413 1412 1411 1410 1409 1408 1407 1405 1405 1404 1403 1402 1400 1398 1395 1394 1394 1392 1389 1387 1384 1383 1380 1377 1375
1415 1415 1414 1414 1413 1413 1413 1412 1411 1411 1411 1410 1409 1408 1408 1407 1406 1405 1404 1403 1401 1400 1399 1399 1398 1396 1394 1392 1389 1388 1387 1385 1382 1379 1377 1375 1372 1370
1410 1410 1409 1409 1409 1408 1408 1407 1407 1406 1406 1405 1404 1404 1403 1402 1401 1400 1399 1398 1397 1396 1395 1394 1393 1392 1390 1388 1385 1382 1382 1381 1379 1376 1373 1370 1366 1363
1405 1405 1404 1404 1404 1403 1403 1403 1402 1401 1401 1400 1399 1399 1398 1398 1397 1396 1395 1394 1393 1392 1391 1389 1388 1387 1386 1384 1381 1378 1376 1375 1373 1372 1369 1367 1364 1359
1400 1400 1399 1399 1399 1398 1398 1398 1397 1396 1396 1395 1394 1394 1393 1393 1392 1391 1390 1390 1388 1387 1386 1384 1383 1382 1380 1379 1377 1374 1371 1369 1367 1365 1364 1362 1360 1357